TimeMST,TemperatureF,Dew PointF,Humidity,Sea Level PressureIn,VisibilityMPH,Wind Direction,Wind SpeedMPH,Gust SpeedMPH,PrecipitationIn,Events,Conditions,WindDirDegrees,DateUTC
12:00 AM,24.8,23.0,93,29.69,0.2,East,3.5,-,N/A,Fog,Light Freezing Fog,80,2012-12-16 07:00:00
12:06 AM,24.8,21.2,86,29.69,0.2,ENE,3.5,-,N/A,Fog,Light Freezing Fog,70,2012-12-16 07:06:00
12:21 AM,23.0,19.4,86,29.69,0.2,Calm,Calm,-,N/A,Fog,Light Freezing Fog,0,2012-12-16 07:21:00
12:40 AM,23.0,19.4,86,29.69,0.5,Calm,Calm,-,N/A,Fog,Scattered Clouds,0,2012-12-16 07:40:00
12:46 AM,23.0,19.4,86,29.69,0.2,Calm,Calm,-,N/A,Fog,Light Freezing Fog,0,2012-12-16 07:46:00
12:53 AM,23.0,19.9,88,29.68,0.2,WNW,3.5,-,N/A,Fog,Light Freezing Fog,300,2012-12-16 07:53:00
1:20 AM,24.8,21.2,86,29.67,0.2,West,3.5,-,N/A,Fog,Light Freezing Fog,260,2012-12-16 08:20:00
1:53 AM,26.1,21.9,84,29.66,0.2,Calm,Calm,-,N/A,Fog,Light Freezing Fog,0,2012-12-16 08:53:00
2:35 AM,26.6,21.2,80,29.69,0.2,SW,8.1,-,N/A,Fog,Light Freezing Fog,230,2012-12-16 09:35:00
2:46 AM,26.6,24.8,93,29.69,0.2,WSW,6.9,-,N/A,Fog,Light Freezing Fog,240,2012-12-16 09:46:00
2:53 AM,26.6,24.8,93,29.70,0.2,WSW,5.8,-,N/A,Fog,Light Freezing Fog,240,2012-12-16 09:53:00
3:53 AM,28.0,25.0,88,29.67,0.2,WSW,4.6,-,N/A,Fog,Light Freezing Fog,250,2012-12-16 10:53:00
4:10 AM,28.4,24.8,86,29.68,0.2,West,4.6,-,N/A,Fog,Light Freezing Fog,260,2012-12-16 11:10:00
4:53 AM,28.4,24.8,86,29.68,0.5,SW,6.9,-,N/A,,Overcast,220,2012-12-16 11:53:00
5:14 AM,28.4,24.8,86,29.68,2.0,SW,4.6,-,N/A,Fog,Overcast,220,2012-12-16 12:14:00
5:39 AM,28.4,24.8,86,29.68,1.0,Calm,Calm,-,N/A,,Overcast,0,2012-12-16 12:39:00
5:53 AM,28.0,24.1,85,29.70,2.0,WSW,3.5,-,N/A,Fog,Mostly Cloudy,240,2012-12-16 12:53:00
5:58 AM,26.6,24.8,93,29.67,0.5,Calm,Calm,-,N/A,Fog,Overcast,0,2012-12-16 12:58:00
6:53 AM,26.1,23.0,88,29.70,0.5,SW,8.1,-,N/A,,Mostly Cloudy,230,2012-12-16 13:53:00
6:59 AM,26.6,23.0,86,29.67,0.5,SW,6.9,-,N/A,,Mostly Cloudy,220,2012-12-16 13:59:00
7:05 AM,26.6,23.0,86,29.67,0.2,SSW,6.9,-,N/A,Fog,Light Freezing Fog,210,2012-12-16 14:05:00
7:11 AM,24.8,21.2,86,29.67,0.2,SW,6.9,-,N/A,Fog,Light Freezing Fog,220,2012-12-16 14:11:00
7:38 AM,24.8,21.2,86,29.68,0.2,WSW,4.6,-,N/A,Fog,Light Freezing Fog,240,2012-12-16 14:38:00
7:44 AM,24.8,21.2,86,29.68,0.2,SW,5.8,-,N/A,Fog,Light Freezing Fog,230,2012-12-16 14:44:00
7:53 AM,24.1,19.9,84,29.72,0.2,SSW,8.1,-,N/A,Fog,Light Freezing Fog,210,2012-12-16 14:53:00
8:14 AM,24.8,21.2,86,29.67,0.2,SSW,6.9,-,N/A,,Mostly Cloudy,200,2012-12-16 15:14:00
8:18 AM,24.8,19.4,80,29.68,8.0,Variable,4.6,-,N/A,,Mostly Cloudy,0,2012-12-16 15:18:00
8:53 AM,26.1,19.0,75,29.72,10.0,SSW,11.5,-,N/A,,Mostly Cloudy,200,2012-12-16 15:53:00
9:53 AM,30.9,21.0,67,29.72,10.0,South,10.4,-,N/A,,Mostly Cloudy,180,2012-12-16 16:53:00
10:53 AM,37.9,18.0,45,29.68,10.0,WSW,4.6,-,N/A,,Mostly Cloudy,240,2012-12-16 17:53:00
11:53 AM,37.0,18.0,46,29.68,10.0,WNW,4.6,-,N/A,,Mostly Cloudy,300,2012-12-16 18:53:00
12:53 PM,37.0,19.9,50,29.68,10.0,North,10.4,-,N/A,,Mostly Cloudy,360,2012-12-16 19:53:00
1:53 PM,37.9,21.9,53,29.66,10.0,North,11.5,-,N/A,,Mostly Cloudy,10,2012-12-16 20:53:00
2:53 PM,39.9,19.0,43,29.66,10.0,North,9.2,-,N/A,,Mostly Cloudy,360,2012-12-16 21:53:00
3:53 PM,37.0,21.0,52,29.71,10.0,NE,6.9,-,N/A,,Mostly Cloudy,50,2012-12-16 22:53:00
4:53 PM,34.0,19.0,54,29.77,10.0,NNE,4.6,-,N/A,,Mostly Cloudy,20,2012-12-16 23:53:00
5:53 PM,35.1,16.0,46,29.78,10.0,SW,3.5,-,N/A,,Mostly Cloudy,220,2012-12-17 00:53:00
6:53 PM,28.0,14.0,56,29.83,10.0,SSW,9.2,-,N/A,,Scattered Clouds,200,2012-12-17 01:53:00
7:53 PM,28.9,10.9,47,29.84,10.0,WSW,6.9,-,N/A,,Scattered Clouds,240,2012-12-17 02:53:00
8:53 PM,32.0,6.1,34,29.81,10.0,West,11.5,-,N/A,,Mostly Cloudy,260,2012-12-17 03:53:00
9:53 PM,33.1,6.1,32,29.78,10.0,West,17.3,-,N/A,,Scattered Clouds,260,2012-12-17 04:53:00
10:53 PM,30.0,5.0,35,29.77,10.0,SW,10.4,-,N/A,,Scattered Clouds,220,2012-12-17 05:53:00
11:53 PM,28.0,6.1,39,29.77,10.0,SSW,15.0,-,N/A,,Scattered Clouds,210,2012-12-17 06:53:00